Regional Weather Roundup
Issued by NWS

Home | Current Version | Previous Version | Text Only | Print | Product List | Glossary On
Versions: 1 2 3 4 5 6 7 8 9 10 11 12 13 14 15 16 17 18 19 20 21 22 23 24 25 26 27 28 29 30 31 32 33 34 35 36 37 38 39 40 41 42 43 44 45 46 47 48 49 50
000
ASUS44 KEWX 080102
RWRTX
SOUTH TEXAS REGIONAL WEATHER ROUNDUP
NATIONAL WEATHER SERVICE AUSTIN/SAN ANTONIO TX
800 PM CDT TUE JUL 07 2015

NOTE: "FAIR" INDICATED FEW OR NO CLOUDS BELOW 12,000 FEET WITH NO
SIGNIFICANT WEATHER AND/OR OBSTRUCTIONS TO VISIBILITY.

* - THESE STATIONS ARE NOT NWS OR FAA STATIONS...AND ARE NOT SUBJECT
    TO NWS AND FAA QUALITY CONTROL.

TXZ171-172-183>190-080200-
TEXAS HILL COUNTRY AND EDWARDS PLATEAU

CITY           SKY/WX    TMP DP  RH WIND       PRES   REMARKS
JUNCTION       CLOUDY    83  68  60 S8        29.95R
*LLANO         MOCLDY    88  70  55 S7        29.95S HX  92
BURNET         MOCLDY    83  71  67 S6        29.96S
*HORSESHOE BAY MOCLDY    85  71  63 SE10G16   29.93S HX  90
*KERRVILLE     MOCLDY    82  72  71 SE9       29.96R
*FREDERICKSBRG MOCLDY    83  67  57 SE9       29.96R
*ROCKSPRINGS   CLOUDY    79  70  73 S6        30.01R HAZE
*BOERNE STAGE  MOCLDY    79  72  78 SE7       29.96S
*CASTROVILLE   CLOUDY    86  71  59 SE16G22   29.93R HX  91
HONDO          MOCLDY    86  72  62 SE13      29.93R HX  92
*UVALDE        MOCLDY    85  71  63 SE5       29.90R HX  90
DEL RIO        MOCLDY    84  71  65 SE7       29.90R
LAUGHLIN AFB   MOCLDY    83  73  71 S6        29.91R HX  90
CARRIZO SPRGS  MOCLDY    90  70  51 SE9       29.84S HX  95
$$

TXZ173-191>194-202-209-217>225-228-080200-
CENTRAL AND SOUTH CENTRAL TEXAS

CITY           SKY/WX    TMP DP  RH WIND       PRES   REMARKS
GEORGETOWN     PTCLDY    84  70  61 S13G21    29.92S
AUSTIN/BERGSTM MOCLDY    84  72  67 S13       29.93R
AUSTIN/MABRY   MOCLDY    84  71  65 S8G17     29.94S
*AUSTIN/EXEC   MOCLDY    84  72  65 S12G17    29.95R
*LAGO VISTA    MOCLDY    83  71  65 SE7       29.96S
SAN MARCOS     MOCLDY   N/A N/A N/A SE14      29.94R
NEW BRAUNFELS  MOCLDY    86  73  65 SE18G25   29.92R HX  93
RANDOLPH AFB   MOCLDY    84  73  68 SE17      29.93S HX  90
PT SAN ANTONIO MOCLDY    85  74  68 SE21      29.91R HX  92
SAN ANTONIO    MOCLDY    85  73  67 SE20      29.93R HX  91
STINSON FIELD  MOCLDY    86  74  67 SE14G23   29.90R HX  94
*PLEASANTON    MOCLDY    85  73  66 SE12G17   29.92R HX  92
*LA GRANGE     PTCLDY    86  75  70 S13       29.94R HX  95
*GIDDINGS      PTCLDY    84  72  67 S8        29.99S
*GONZALES      PTCLDY    85  73  67 S16G24    29.94R HX  92
$$

TXZ163>164-176>182-195>201-210>213-226-227-235-080200-
SOUTHEAST TEXAS

CITY           SKY/WX    TMP DP  RH WIND       PRES   REMARKS
COLLEGE STN    PTCLDY    85  73  67 S13       29.95S HX  91
*BRYAN         PTCLDY    85  74  68 S9G18     29.97R HX  92
*CALDWELL      PTCLDY    84  73  70 SE10      29.98S HX  91
*CROCKETT      LGT RAIN  77  75  94 SE7       30.01R VSB 1
*BRENHAM       PTCLDY    87  73  64 S9        29.97S HX  94
HUNTSVILLE     CLOUDY    85  74  69 S9        29.97S HX  92
CONROE         MOCLDY    84  73  69 S15       29.99R HX  90
HOUSTON BUSH   MOCLDY    86  74  67 S12       29.98S HX  94
HOUSTON HOBBY  MOCLDY    85  76  74 S8G17     29.99R HX  94
*HOUSTON SW AP PTCLDY    77  72  83 SE9       29.99S
PEARLAND       PTCLDY    86  76  71 S10       30.01S HX  96
HOUSTON HOOKS  PTCLDY    85  74  69 S8        29.98R HX  92
ELLINGTON FLD  MOCLDY    86  73  66 S13       30.00S HX  93
SUGAR LAND     PTCLDY    84  76  76 S12       29.98S HX  93
*HOUSTON EXEC  PTCLDY    84  73  70 S10       29.99S HX  91
*CLEVELAND MUN PTCLDY    83  77  80 S8G17     30.00S HAZE    HX  92
*WHARTON       PTCLDY    84  75  75 SE12      29.98S HX  92
*COLUMBUS      FAIR      84  75  75 S12G17    29.96F HX  91
$$

TXZ214>216-236>238-080200-
THE UPPER TEXAS COAST

CITY           SKY/WX    TMP DP  RH WIND       PRES   REMARKS
*ORANGE        PTCLDY    84  71  64 S7        30.04R
PORT ARTHUR    CLEAR     84  76  76 S9        30.02R HX  93
GALVESTON      PTCLDY    85  79  82 S13       30.01S HX  98
ANGLETON       MOCLDY    85  78  80 S9        29.99S HX  96
*BAY CITY      PTCLDY    85  78  80 S8        29.98S HX  97
PALACIOS       MOCLDY    85  78  80 SE16      29.97S HX  96
$$

TXZ229>234-239>247-080200-
TEXAS COASTAL BEND AND RIO GRANDE PLAINS

CITY           SKY/WX    TMP DP  RH WIND       PRES   REMARKS
VICTORIA       MOCLDY    85  76  74 S17G25    29.97R HX  94
*BEEVILLE      PTCLDY    84  77  78 SE15      29.93S HX  94
ROCKPORT       LGT RAIN  84  78  82 SE14G23   29.94R HX  95
*PORT ARANSAS  CLOUDY    83  79  89 SE9G16    29.95R FOG     HX  93
*PORT LAVACA   MOCLDY    84  77  79 SE14      29.97R HX  94
*INGLESIDE     MOCLDY    85  78  79 SE20      29.94R HX  98
CORPUS CHRISTI CLOUDY    85  77  77 SE21G31   29.93R HX  95
CORPUS NAS     MOCLDY    83  79  88 SE20G26   29.94R HX  94
*ROBSTOWN      MOCLDY    86  76  73 SE14G24   29.93R HX  96
ALICE          CLOUDY    85  77  77 SE16G26   29.91R HX  95
KINGSVILLE NAS CLOUDY    85  80  85 SE20G25   29.92R HX  99
COTULLA        MOCLDY    91  70  49 SE22G28   29.87R HX  96
*FAITH RANCH     N/A     91  68  46 SE7       29.86R HX  95
LAREDO         MOCLDY    93  70  47 SE20      29.87S HX  98
$$

TXZ248>255-080200-
DEEP SOUTH TEXAS

CITY           SKY/WX    TMP DP  RH WIND       PRES   REMARKS
BROWNSVILLE    MOCLDY    85  77  77 SE17      29.93R HX  95
PORT ISABEL    MOCLDY    84  78  82 SE20G26   29.92R HAZE    HX  95
*SOUTH PADRE     N/A     81  77  89 SW8       29.94R VSB 3/4
HARLINGEN      PTCLDY    86  77  74 SE18      29.91R HX  97
*HEBBRONVILLE    N/A     87  70  56 SE14G21   29.91R HX  92
MCALLEN        PTCLDY    89  73  59 SE17G29   29.91R HX  97
*WESLACO       PTCLDY    87  72  60 S15G24    29.90R HX  94
FALFURRIAS     PTCLDY    87  75  68 SE8       29.91R HX  96
EDINBURG       PTCLDY    89  73  58 SE14G23   29.90R HX  96
*ZAPATA        PTCLDY    92  69  47 SE17G25   29.85S HX  96
$$

TXZ213>215-236>238-242>244-246-247-251-254-255-080200-
CMAN STATIONS

STATION/POSITION TIME  TEMP    WIND        PRES    WAVE
                       AIR SEA DIR/SP/G            HT/PER
                 (UTC) (F)     (DEG/KT/KT) (MB)    (FT/S)
$$

GMZ080-GMZ150>470-080200-
OFFSHORE BUOY REPORTS

STATION/POSITION TIME  TEMP    WIND        PRES    WAVE
                       AIR SEA DIR/SP/G            HT/PER
                 (UTC) (F)     (DEG/KT/KT) (MB)    (FT/S)
$$



USA.gov is the U.S. government's official web portal to all federal, state and local government web resources and services.